BREEZE-M DEB, 41547

Orbit data source: Space-Track

BREEZE-M DEB, 41547 is space debris in GEO originally from a launch on Sun, 13 Dec 2015 UTC launched from the Tyuratam Missile And Space Complex (TTMTR). Debris objects in space refer to the collection of defunct objects orbiting the Earth. Examples of debris include non-operational satellites, rocket bodies, and fragments generated from explosions, collisions, or faulty payload assembly.

Loading next visibility...
Identifier
41547, 2015-075H
Orbit
GEO
Country
Flag of CISCIS
Related business
Manufacturer
Khrunichev
Mission
Spacecraft
Bus & Motor
Unknown
Mass
Unknown
Launch date (UTC)
2015-12-13 (11 years ago)
Launch vehicle
Unknown
Launch site
Tyuratam Missile And Space Complex (TTMTR)
Object type
Payload
Rocket body
Debris
Shape & HBR
Unknown shape, 1.1 m
Radar Cross Section
Medium (>0.1 m² and <1 m²)

Expand to show TLE details & history
Last TLE update: 3 days ago

TLE from 3 days ago
0 BREEZE-M DEB
1 41547U 15075H   26170.64465380 -.00000235  00000-0  00000-0 0  9992
2 41547   8.6555  61.8274 0267387 139.7374 222.1731  1.03191828 39303
Epoch: 2026-06-19T15:28Z
TLE epoch observation values (Epoch: 2026-06-19T15:28:18.088Z)
Latitude
0.00001°
Longitude
-78.18929°
Altitude
35,818.219 km
Speed
3.043 km/s
True Right ascension
04h 07m 01s
True Declination
0° 00' 00"
Sunlit
Object was in daylight at epoch
Visualization orbit readout
Latitude
Unknown
Longitude
Unknown
Altitude
Unknown
Speed
Unknown
Apparent Right ascension
Unknown
Apparent Declination
Unknown
Sunlit
N/A
Visualization observer readout
Local Sidereal Time
21:24:29
Azimuth
Unknown
Elevation
Unknown
Doppler factor
Unknown
Orbital elements
Apogee altitude
36,094.508 km
Perigee altitude
33,882.333 km
Semi-major axis
41,366.557 km
Eccentricity
0.02674
Inclination
8.6555°
RAAN
61.8274°
Arg. of periapsis
139.7374°
True anomaly
220.16617°
Mean anomaly
222.1731°
Eccentric anomaly
221.16469°
Mean motion
0.25797 °/min
Orbital period
1,395.51 mins
BSTAR
0
Loading maneuver chart data...
Computing Atmospheric mass density...
Loading historical data...
Loading historical data...
Loading historical data...
Loading historical data...
Loading historical data...
Loading historical data...
Loading historical data...

Documentation

Showing up to 5 results
|